Port Angeles, WA

7:13 AM PDT on September 25, 2016 (GMT -0700)
Fairchild International

Weather History for KCLM - October, 2012

Change the Weather History Date:

Saturday, October 27, 2012

  Actual Average Record
Temperature  
Mean Temperature 48 °F -  
Max Temperature 50 °F 53 °F 64 °F (1973)
Min Temperature 46 °F 41 °F 29 °F (1970)
Degree Days  
Heating Degree Days 17    
Moisture  
Dew Point 46 °F    
Average Humidity 94    
Maximum Humidity 96    
Minimum Humidity 87    
Precipitation  
Precipitation 0.09 in - - ()
Sea Level Pressure  
Sea Level Pressure 29.84 in    
Wind  
Wind Speed 2 mph (ESE)    
Max Wind Speed 7 mph    
Max Gust Speed -    
Visibility 6 miles    
Events Fog , Rain    
Averages and records for this station are not official NWS values.
T = Trace of Precipitation, MM = Missing Value Source: NWS Daily Summary

Daily Weather History Graph

Daily Weather History Graph

Search for Another Location

Airport or City:

Trip Planner

Search our weather history database for the weather conditions in past years. The results will help you decide how hot, cold, wet, or windy it might be!

Date:

Astronomy

Oct. 27, 2012 Rise Set
Actual Time 7:52 AM PDT 6:02 PM PDT
Civil Twilight 7:20 AM PDT 6:34 PM PDT
Nautical Twilight 6:43 AM PDT 7:11 PM PDT
Astronomical Twilight 6:07 AM PDT 7:47 PM PDT
Moon 4:55 PM PDT (10/27) 5:46 AM PDT (10/27)
Length of Visible Light 11h 14m
Length of Day
10h 10m
Waxing Gibbous, 96% of the Moon is Illuminated
Oct 27
Waxing Gibbous
Oct 29
Full
Nov 6
Last Quarter
Nov 13
New
Nov 20
First Quarter

Hourly Weather History & Observations

Time (PDT) Temp. Windchill Dew Point Humidity Pressure Visibility Wind Dir Wind Speed Gust Speed Precip Events Conditions
12:09 AM 46.9 °F - 45.0 °F 93% 30.01 in 10.0 mi Calm Calm - N/A   Overcast
12:53 AM 46.9 °F - 45.0 °F 93% 30.01 in 10.0 mi Calm Calm - N/A   Overcast
1:07 AM 46.9 °F - 45.0 °F 93% 30.01 in 10.0 mi WSW 3.5 mph - N/A   Overcast
1:42 AM 46.9 °F - 45.0 °F 93% 30.00 in 10.0 mi Calm Calm - N/A   Overcast
1:53 AM 46.9 °F - 45.0 °F 93% 30.01 in 10.0 mi Calm Calm - N/A   Overcast
2:53 AM 46.9 °F - 45.0 °F 93% 30.01 in 10.0 mi Calm Calm - N/A   Overcast
3:53 AM 46.9 °F - 45.0 °F 93% 30.01 in 10.0 mi Calm Calm - N/A   Overcast
4:53 AM 46.9 °F - 45.0 °F 93% 30.01 in 10.0 mi Calm Calm - 0.00 in Rain Light Rain
5:53 AM 46.9 °F - 45.0 °F 93% 30.00 in 9.0 mi SE 4.6 mph - 0.00 in Rain Light Rain
6:53 AM 46.9 °F - 45.0 °F 93% 29.99 in 9.0 mi ESE 3.5 mph - 0.00 in Rain Light Rain
7:16 AM 46.9 °F - 45.0 °F 93% 29.98 in 10.0 mi SE 3.5 mph - 0.00 in Rain Light Rain
7:53 AM 46.9 °F - 45.0 °F 93% 29.97 in 9.0 mi Calm Calm - 0.00 in Rain Light Rain
8:49 AM 46.4 °F - 44.6 °F 93% 29.96 in 5.0 mi Calm Calm - 0.00 in Rain Light Rain
8:53 AM 46.9 °F - 45.0 °F 93% 29.96 in 4.0 mi Calm Calm - 0.00 in Rain Light Rain
9:22 AM 46.9 °F - 45.0 °F 93% 29.95 in 2.0 mi Calm Calm - 0.02 in Rain Light Rain
9:32 AM 46.9 °F - 45.0 °F 93% 29.95 in 3.0 mi Calm Calm - 0.02 in Rain Light Rain
9:43 AM 46.9 °F - 45.0 °F 93% 29.95 in 2.5 mi Calm Calm - 0.03 in Rain Light Rain
9:53 AM 46.9 °F - 45.0 °F 93% 29.96 in 4.0 mi East 3.5 mph - 0.03 in Rain Light Rain
10:53 AM 48.0 °F - 46.0 °F 93% 29.95 in 7.0 mi Calm Calm - 0.03 in Rain Light Rain
11:53 AM 48.9 °F - 46.0 °F 90% 29.93 in 10.0 mi ESE 4.6 mph - 0.01 in   Overcast
12:53 PM 48.9 °F - 46.9 °F 93% 29.89 in 10.0 mi East 4.6 mph - N/A   Overcast
1:53 PM 50.0 °F - 46.9 °F 89% 29.86 in 10.0 mi NE 3.5 mph - N/A   Overcast
2:08 PM 48.9 °F - 46.9 °F 93% 29.85 in 10.0 mi ENE 3.5 mph - N/A   Overcast
2:53 PM 50.0 °F - 46.9 °F 89% 29.82 in 10.0 mi East 4.6 mph - N/A   Overcast
3:00 PM 50.0 °F - 46.4 °F 87% 29.81 in 10.0 mi Variable 3.5 mph - N/A   Overcast
3:39 PM 48.9 °F - 46.9 °F 93% 29.80 in 10.0 mi NNW 3.5 mph - 0.00 in Rain Light Rain
3:53 PM 48.9 °F - 46.9 °F 93% 29.79 in 10.0 mi Calm Calm - 0.00 in Rain Light Rain
4:53 PM 48.9 °F - 46.9 °F 93% 29.75 in 1.0 mi ENE 3.5 mph - 0.00 in Rain Light Rain
4:59 PM 48.9 °F - 46.9 °F 93% 29.75 in 0.2 mi ENE 3.5 mph - 0.00 in Fog Fog
5:05 PM 48.0 °F - 46.9 °F 96% 29.74 in 0.5 mi East 5.8 mph - 0.01 in Fog , Rain Light Rain
5:12 PM 48.0 °F - 46.9 °F 96% 29.74 in 2.0 mi Calm Calm - 0.01 in Rain Light Rain
5:20 PM 48.9 °F - 46.9 °F 93% 29.74 in 2.5 mi Calm Calm - 0.01 in Rain Light Rain
5:27 PM 48.0 °F - 46.9 °F 96% 29.76 in 1.8 mi NW 6.9 mph - 0.01 in Rain Light Rain
5:31 PM 48.0 °F - 46.0 °F 93% 29.76 in 0.8 mi NW 6.9 mph - 0.01 in Rain Light Rain
5:45 PM 48.0 °F - 46.9 °F 96% 29.75 in 2.0 mi SSW 4.6 mph - 0.02 in Rain Light Rain
5:53 PM 48.0 °F - 46.9 °F 96% 29.74 in 6.0 mi South 5.8 mph - 0.02 in Rain Light Rain
5:58 PM 48.0 °F - 46.9 °F 96% 29.72 in 10.0 mi SSE 3.5 mph - 0.00 in Rain Light Rain
6:07 PM 48.0 °F - 46.9 °F 96% 29.72 in 10.0 mi North 4.6 mph - 0.00 in   Overcast
6:28 PM 48.0 °F - 46.9 °F 96% 29.71 in 1.8 mi Calm Calm - 0.00 in   Overcast
6:36 PM 48.0 °F - 46.9 °F 96% 29.72 in 0.5 mi Calm Calm - 0.00 in Fog Fog
6:46 PM 48.0 °F - 46.0 °F 93% 29.72 in 0.5 mi Calm Calm - 0.00 in Fog Fog
6:53 PM 48.0 °F - 46.9 °F 96% 29.72 in 0.2 mi Calm Calm - 0.00 in Fog Fog
7:03 PM 48.0 °F - 46.9 °F 96% 29.71 in 0.5 mi Calm Calm - N/A Fog Fog
7:12 PM 48.0 °F - 46.0 °F 93% 29.71 in 0.5 mi Calm Calm - N/A Fog Fog
7:23 PM 48.0 °F - 46.0 °F 93% 29.71 in 1.5 mi Calm Calm - N/A   Overcast
7:31 PM 48.0 °F - 46.0 °F 93% 29.72 in 2.0 mi West 3.5 mph - 0.00 in Rain Light Rain
7:36 PM 48.2 °F - 46.4 °F 93% 29.72 in 1.5 mi West 3.5 mph - N/A Rain Light Rain
7:43 PM 48.0 °F - 46.9 °F 96% 29.72 in 0.8 mi Calm Calm - 0.00 in   Overcast
7:49 PM 48.2 °F - 46.4 °F 93% 29.72 in 1.2 mi SSW 3.5 mph - 0.00 in   Overcast
7:53 PM 48.0 °F - 46.9 °F 96% 29.73 in 3.0 mi Calm Calm - 0.00 in   Overcast
8:53 PM 48.2 °F - 46.4 °F 93% 29.72 in 10.0 mi WNW 4.6 mph - N/A   Mostly Cloudy
9:53 PM 46.0 °F 44.8 °F 45.0 °F 96% 29.73 in 10.0 mi SSW 3.5 mph - N/A   Scattered Clouds
10:53 PM 46.0 °F - 45.0 °F 96% 29.76 in 7.0 mi Calm Calm - N/A   Mostly Cloudy
11:53 PM 46.9 °F - 45.0 °F 93% 29.80 in 9.0 mi Calm Calm - N/A   Overcast